When you browse on this site, cookies collect data to enhance your experience and personalize the content and advertising you see.
Visit our Privacy Policy to learn more. By continuing to use the site, you agree to this use of cookies and data.
  • Em Portugal
  • Lista de países
  • Para 7 dias
  • Temperatura da água
  • Mapa do tempo
  • Widgets de tempo
  • user-avatar
    Iniciar Sessão

    Previsão horária em Kandahar

    Hoje, 26 Maio, Terça-feira

    Tempo Temperatura Precipitação Vento Pressão Humidade
    00:00 +28°C° 0 mm 3 m/s 672 mmHg 10%
    01:00 +27°C° 0 mm 2 m/s 672 mmHg 12%
    02:00 +26°C° 0 mm 2 m/s 672 mmHg 14%
    03:00 +25°C° 0 mm 2 m/s 671 mmHg 17%
    04:00 +24°C° 0 mm 1 m/s 671 mmHg 18%
    05:00 +26°C° 0 mm 1 m/s 672 mmHg 18%
    06:00 +27°C° 0 mm 2 m/s 673 mmHg 17%
    07:00 +29°C° 0 mm 2 m/s 673 mmHg 16%
    08:00 +31°C° 0 mm 2 m/s 674 mmHg 14%
    09:00 +34°C° 0 mm 3 m/s 674 mmHg 13%
    10:00 +36°C° 0 mm 3 m/s 675 mmHg 10%
    11:00 +37°C° 0 mm 4 m/s 675 mmHg 9%
    12:00 +38°C° 0 mm 4 m/s 674 mmHg 7%
    13:00 +41°C° 0 mm 5 m/s 674 mmHg 6%
    14:00 +41°C° 0 mm 5 m/s 674 mmHg 6%
    15:00 +40°C° 0 mm 5 m/s 673 mmHg 5%
    16:00 +40°C° 0 mm 5 m/s 673 mmHg 5%
    17:00 +38°C° 0 mm 4 m/s 673 mmHg 6%
    18:00 +36°C° 0 mm 3 m/s 673 mmHg 6%
    19:00 +34°C° 0 mm 3 m/s 672 mmHg 7%
    20:00 +32°C° 0 mm 2 m/s 672 mmHg 7%
    21:00 +31°C° 0 mm 2 m/s 672 mmHg 8%
    22:00 +30°C° 0 mm 2 m/s 672 mmHg 8%
    23:00 +29°C° 0 mm 2 m/s 672 mmHg 10%

    Amanhã, 27 Maio, Quarta-feira

    Tempo Temperatura Precipitação Vento Pressão Humidade
    00:00 +28°C° 0 mm 2 m/s 671 mmHg 11%
    01:00 +27°C° 0 mm 2 m/s 671 mmHg 12%
    02:00 +26°C° 0 mm 2 m/s 670 mmHg 15%
    03:00 +25°C° 0 mm 2 m/s 670 mmHg 17%
    04:00 +25°C° 0 mm 1 m/s 670 mmHg 19%
    05:00 +26°C° 0 mm 2 m/s 671 mmHg 19%
    06:00 +27°C° 0 mm 2 m/s 671 mmHg 18%
    07:00 +29°C° 0 mm 2 m/s 672 mmHg 17%
    08:00 +30°C° 0 mm 2 m/s 672 mmHg 16%
    09:00 +32°C° 0 mm 2 m/s 672 mmHg 14%
    10:00 +35°C° 0 mm 2 m/s 672 mmHg 13%
    11:00 +36°C° 0 mm 2 m/s 672 mmHg 12%
    12:00 +37°C° 0 mm 2 m/s 672 mmHg 10%
    13:00 +38°C° 0 mm 2 m/s 672 mmHg 9%
    14:00 +39°C° 0 mm 2 m/s 671 mmHg 8%
    15:00 +39°C° 0 mm 2 m/s 671 mmHg 7%
    16:00 +40°C° 0 mm 3 m/s 670 mmHg 6%
    17:00 +38°C° 0 mm 2 m/s 670 mmHg 7%
    18:00 +36°C° 0 mm 2 m/s 670 mmHg 8%
    19:00 +35°C° 0 mm 2 m/s 669 mmHg 9%
    20:00 +34°C° 0 mm 3 m/s 669 mmHg 11%
    21:00 +33°C° 0 mm 4 m/s 669 mmHg 13%
    22:00 +32°C° 0 mm 5 m/s 669 mmHg 16%
    23:00 +30°C° 0 mm 4 m/s 669 mmHg 17%

    Depois de amanhã, 28 Maio, Quinta-feira

    Tempo Temperatura Precipitação Vento Pressão Humidade
    00:00 +29°C° 0 mm 4 m/s 669 mmHg 19%
    01:00 +28°C° 0 mm 3 m/s 669 mmHg 21%
    02:00 +28°C° 0 mm 3 m/s 668 mmHg 22%
    03:00 +27°C° 0 mm 3 m/s 668 mmHg 23%
    04:00 +27°C° 0 mm 2 m/s 668 mmHg 24%
    05:00 +28°C° 0 mm 3 m/s 669 mmHg 22%
    06:00 +30°C° 0 mm 3 m/s 669 mmHg 20%
    07:00 +31°C° 0 mm 3 m/s 670 mmHg 18%
    08:00 +34°C° 0 mm 3 m/s 670 mmHg 16%
    09:00 +35°C° 0 mm 3 m/s 670 mmHg 13%
    10:00 +37°C° 0 mm 3 m/s 670 mmHg 11%
    11:00 +38°C° 0 mm 3 m/s 670 mmHg 10%
    12:00 +39°C° 0 mm 2 m/s 670 mmHg 9%
    13:00 +39°C° 0 mm 1 m/s 669 mmHg 8%
    14:00 +40°C° 0 mm 1 m/s 669 mmHg 8%
    15:00 +40°C° 0 mm 2 m/s 668 mmHg 8%
    16:00 +40°C° 0 mm 2 m/s 668 mmHg 7%
    17:00 +40°C° 0 mm 4 m/s 668 mmHg 9%
    18:00 +37°C° 0 mm 5 m/s 668 mmHg 11%
    19:00 +36°C° 0 mm 7 m/s 668 mmHg 14%
    20:00 +35°C° 0 mm 7 m/s 668 mmHg 15%
    21:00 +34°C° 0 mm 7 m/s 669 mmHg 16%
    22:00 +33°C° 0 mm 7 m/s 669 mmHg 17%
    23:00 +32°C° 0 mm 6 m/s 668 mmHg 19%

    29 Maio, Sexta-feira

    Tempo Temperatura Precipitação Vento Pressão Humidade
    00:00 +30°C° 0 mm 4 m/s 668 mmHg 21%
    01:00 +29°C° 0 mm 2 m/s 668 mmHg 23%
    02:00 +29°C° 0 mm 3 m/s 668 mmHg 24%
    03:00 +28°C° 0 mm 3 m/s 668 mmHg 25%
    04:00 +28°C° 0 mm 4 m/s 668 mmHg 26%
    05:00 +29°C° 0 mm 4 m/s 668 mmHg 24%
    06:00 +32°C° 0 mm 5 m/s 669 mmHg 22%
    07:00 +33°C° 0 mm 6 m/s 670 mmHg 20%
    08:00 +35°C° 0 mm 6 m/s 670 mmHg 17%
    09:00 +36°C° 0 mm 5 m/s 670 mmHg 15%
    10:00 +39°C° 0 mm 5 m/s 671 mmHg 13%
    11:00 +39°C° 0 mm 3 m/s 670 mmHg 11%
    12:00 +39°C° 0 mm 2 m/s 670 mmHg 10%
    13:00 +40°C° 0 mm 1 m/s 670 mmHg 9%
    14:00 +41°C° 0 mm 4 m/s 669 mmHg 10%
    15:00 +40°C° 0 mm 6 m/s 669 mmHg 11%
    16:00 +39°C° 0 mm 9 m/s 668 mmHg 12%
    17:00 +38°C° 0 mm 8 m/s 669 mmHg 14%
    18:00 +36°C° 0 mm 7 m/s 669 mmHg 16%
    19:00 +34°C° 0 mm 6 m/s 669 mmHg 17%
    20:00 +33°C° 0 mm 7 m/s 669 mmHg 21%
    21:00 +32°C° 0 mm 8 m/s 669 mmHg 24%
    22:00 +31°C° 0 mm 9 m/s 670 mmHg 28%
    23:00 +29°C° 0 mm 8 m/s 669 mmHg 29%

    30 Maio, Sábado

    Tempo Temperatura Precipitação Vento Pressão Humidade
    00:00 +29°C° 0 mm 7 m/s 669 mmHg 30%
    01:00 +29°C° 0 mm 5 m/s 669 mmHg 30%
    02:00 +28°C° 0 mm 5 m/s 669 mmHg 31%
    03:00 +27°C° 0 mm 5 m/s 669 mmHg 32%
    04:00 +27°C° 0 mm 5 m/s 669 mmHg 33%
    05:00 +28°C° 0 mm 5 m/s 670 mmHg 30%
    06:00 +29°C° 0 mm 6 m/s 670 mmHg 28%
    07:00 +32°C° 0 mm 6 m/s 671 mmHg 25%
    08:00 +33°C° 0 mm 6 m/s 671 mmHg 22%
    09:00 +35°C° 0 mm 5 m/s 672 mmHg 19%
    10:00 +37°C° 0 mm 4 m/s 672 mmHg 16%
    11:00 +38°C° 0 mm 3 m/s 672 mmHg 15%
    12:00 +38°C° 0 mm 2 m/s 671 mmHg 13%
    13:00 +39°C° 0 mm 1 m/s 671 mmHg 11%
    14:00 +39°C° 0 mm 3 m/s 671 mmHg 10%
    15:00 +41°C° 0 mm 4 m/s 670 mmHg 9%
    16:00 +41°C° 0 mm 6 m/s 670 mmHg 8%
    17:00 +39°C° 0 mm 5 m/s 670 mmHg 8%
    18:00 +37°C° 0 mm 4 m/s 669 mmHg 8%
    19:00 +35°C° 0 mm 2 m/s 669 mmHg 8%
    20:00 +34°C° 0 mm 2 m/s 669 mmHg 9%
    21:00 +32°C° 0 mm 2 m/s 670 mmHg 10%
    22:00 +30°C° 0 mm 1 m/s 670 mmHg 11%
    23:00 +30°C° 0 mm 1 m/s 670 mmHg 11%

    31 Maio, Domingo

    Tempo Temperatura Precipitação Vento Pressão Humidade
    00:00 +29°C° 0 mm 1 m/s 669 mmHg 11%
    01:00 +28°C° 0 mm 1 m/s 669 mmHg 11%
    02:00 +27°C° 0 mm 1 m/s 669 mmHg 11%
    03:00 +27°C° 0 mm 1 m/s 669 mmHg 12%
    04:00 +26°C° 0 mm 1 m/s 669 mmHg 12%
    05:00 +28°C° 0 mm 1 m/s 670 mmHg 13%
    06:00 +29°C° 0 mm 2 m/s 671 mmHg 15%
    07:00 +31°C° 0 mm 2 m/s 672 mmHg 16%
    08:00 +34°C° 0 mm 2 m/s 672 mmHg 14%
    09:00 +34°C° 0 mm 1 m/s 672 mmHg 12%
    10:00 +36°C° 0 mm 1 m/s 673 mmHg 10%
    11:00 +38°C° 0 mm 2 m/s 672 mmHg 8%
    12:00 +39°C° 0 mm 3 m/s 672 mmHg 6%
    13:00 +42°C° 0 mm 4 m/s 672 mmHg 4%
    14:00 +42°C° 0 mm 4 m/s 671 mmHg 4%
    15:00 +42°C° 0 mm 4 m/s 671 mmHg 3%
    16:00 +42°C° 0 mm 4 m/s 671 mmHg 3%
    17:00 +40°C° 0 mm 4 m/s 670 mmHg 3%
    18:00 +37°C° 0 mm 3 m/s 670 mmHg 4%
    19:00 +35°C° 0 mm 3 m/s 669 mmHg 4%
    20:00 +34°C° 0 mm 3 m/s 670 mmHg 4%
    21:00 +33°C° 0 mm 3 m/s 670 mmHg 4%
    22:00 +31°C° 0 mm 3 m/s 670 mmHg 5%
    23:00 +30°C° 0 mm 2 m/s 670 mmHg 6%
    Mostrar mais